User: anonymous   Login
Location: Unspecified
(0.0000°N, 0.0000°E)
Time: 19:34:52
(UTC+01:00)
Language:

Cosmos 494 Rocket - Orbit

View from above orbital plane
View from above orbital plane
View from above satellite
View from above satellite

Ground track
Ground track

The orbit data is extracted from the following two-line orbital elements,

1 06061U 72043B   16037.14772936  .00000104  00000-0  41144-4 0  9998
2 06061  74.0570  18.0901 0021403 273.0624  86.8082 14.40432943286744
Epoch (UTC): 06 February 2016 03:32:43
Eccentricity: 0.0021403
inclination: 74.0570°
perigee height: 742 km
apogee height: 772 km
right ascension of ascending node: 18.0901°
argument of perigee: 273.0624°
revolutions per day: 14.40432943
mean anomaly at epoch: 86.8082°
orbit number at epoch: 28674

The dashed part of the orbit path shows where the satellite is in the earth's shadow,  

DLR